Miscellaneous Local Product
Issued by NWS North Platte, NE

Home | Current Version | Previous Version | Text Only | Print | Product List | Glossary On
Versions: 1 2 3 4 5 6 7 8 9 10 11 12 13 14 15 16 17 18 19 20 21 22 23 24 25 26 27 28 29 30 31 32 33 34 35 36 37 38 39 40 41 42 43 44 45 46 47 48 49 50
000
AXUS43 KLBF 262110
MISLBF


WESTERN AND NORTH CENTRAL NEBRASKA HOURLY WEATHER ROUNDUP
NATIONAL WEATHER SERVICE NORTH PLATTE NE
300 PM CST SUN FEB 26 2017

NOTE: "FAIR" INDICATES FEW OR NO CLOUDS BELOW 12,000 FEET WITH NO
SIGNIFICANT WEATHER AND/OR OBSTRUCTIONS TO VISIBILITY.

NOTE: STATIONS NOT REPORTING VARIABLES SUCH AS SKY/WEATHER OR
PRESSURE ARE PROVIDED BY RAWS AND APRS NETWORKS AND ARE NOT UNDER
NATIONAL WEATHER SERVICE QUALITY CONTROL.

...OBSERVATIONS IN AND NEAR THE EASTERN PANHANDLE OF NEBRASKA...

CITY           SKY/WX    TMP DP  RH WIND       PRES   REMARKS
PINE RIDGE     SUNNY     29  13  51 W14       29.82F WCI  18
CHADRON        SUNNY     26  12  55 W8        29.83F WCI  18
ALLIANCE       SUNNY     26  17  68 W10       29.81F WCI  16
SIDNEY         SUNNY     34  14  43 W14       29.82F WCI  25
CRESCENT LAKE    N/A     31  13  46 NW10        N/A  WCI  22
$$

...OBSERVATIONS IN NORTHERN NEBRASKA AND FAR SOUTHERN SOUTH DAKOTA...

CITY           SKY/WX    TMP DP  RH WIND       PRES   REMARKS
WINNER         FAIR      38  22  52 SW15      29.82F WCI  29
VALENTINE      SUNNY     30  16  56 SW13      29.83F WCI  20
THEDFORD       SUNNY     33  16  49 W8        29.86F WCI  25
AINSWORTH      SUNNY     34  20  56 W10       29.84F WCI  26
O`NEILL        SUNNY     35  21  55 SW10      29.87F WCI  28
ORD            SUNNY     38  14  37 W6        29.87F WCI  33
BROKEN BOW     SUNNY     38  20  48 VRB5      29.86F WCI  34
VALENTINE NWR    N/A     34  15  44 W9          N/A  WCI  27
BUTTE            N/A     33  21  62 SW3         N/A
HALSEY           N/A     41  16  35 W5G12       N/A
CHAMBERS         N/A     39  19  44 W3          N/A
EWING            N/A     37  24  59 SW3         N/A
$$

...OBSERVATIONS IN SOUTHWEST NEBRASKA AND FAR NORTHEAST COLORADO...

CITY           SKY/WX    TMP DP  RH WIND       PRES   REMARKS
HOLYOKE        FAIR      41  12  30 SW7       29.85F
IMPERIAL       SUNNY     40  13  33 NW14      29.87F WCI  32
OGALLALA       SUNNY     38  14  37 NW16G25   29.85F WCI  29
NORTH PLATTE   SUNNY     40  12  32 W13       29.88S WCI  32
MCCOOK         SUNNY     44   7  21 W14G22    29.88F
LEXINGTON      SUNNY     41  13  31 NW10      29.88F
STAPLETON        N/A     37  17  44 CALM        N/A
GOTHENBURG       N/A     39  12  33 NW9         N/A  WCI  33
CALLAWAY         N/A     36  19  49 NW14        N/A  WCI  27
$$

...OBSERVATIONS IN CENTRAL LINCOLN COUNTY AREA...

CITY           SKY/WX    TMP DP  RH WIND       PRES   REMARKS
N.P. AIRPORT   SUNNY     40  12  32 W13       29.88S WCI  32
N.P. DOWNTOWN    N/A     18  11  74 W3          N/A
N.P. SOUTHEAST   N/A     38  12  34 W6          N/A  WCI  33
N.P. HILLCREST   N/A     37  13  38 NW13        N/A  WCI  29
$$

...SOME OBSERVATIONS FROM AROUND THE REGION...

CITY           SKY/WX    TMP DP  RH WIND       PRES   REMARKS
LARAMIE        SUNNY     24   4  42 SW23G31   29.68F WCI   9
CHEYENNE       SUNNY     25  12  58 S10       29.74F WCI  15
DENVER         SUNNY     40  -5  14 W9        29.74F WCI  34
AKRON          SUNNY     40   8  26 S13       29.79F WCI  32
SCOTTSBLUFF    SUNNY     32  16  51 W16       29.82F WCI  21
RAPID CITY     MOSUNNY   37  14  38 N6        29.75S WCI  32
BISMARCK       CLOUDY    23  17  78 E8        29.78F HAZE    WCI  14
PIERRE         PTSUNNY   42  11  28 W14       29.76F
SIOUX FALLS    MOSUNNY   36  25  64 W8        29.86F WCI  30
OMAHA          MOSUNNY   44  22  41 CALM      29.93F
GRAND ISLAND   SUNNY     44  19  36 NW6       29.89F
KANSAS CITY    MOSUNNY   50  23  34 SW8       29.94F
WICHITA        MOSUNNY   51  25  36 SE5       29.89F
OKLAHOMA CITY  PTSUNNY   58  32  37 VRB7      29.86F
DALLAS         CLOUDY    63  51  65 S17       29.88F
AMARILLO       SUNNY     58  12  16 W8        29.82F
DODGE CITY     SUNNY     52  11  19 E7        29.86F
HAYS           SUNNY     49   6  17 CALM      29.90F
GOODLAND       SUNNY     43   5  20 E5        29.84F
$$




USA.gov is the U.S. government's official web portal to all federal, state and local government web resources and services.